Погода на Кулебре

Пуэрто-Рико     18°19′09″N   65°16′55″W
темп.,
°C
ветер,
м/с
пор.,
м/с
влажн.,
%
обл.,
%
осадки,
мм/ч
давл.,
гПа
погр.,
м
21 апреля, ср
ср2123:00+26в78741 0.0 1019995
02:00+26в88723 1.6 10171106
05:00+26в1010693 1.9 10171190
08:00+26в9107015 1.9 10181281
11:00+26в89716 0.0 10191139
14:00+27в89700 0.1 10171150
17:00+26в78744 0.0 1016987
20:00+27в88725 0.0 10171019
22 апреля, чт
чт2223:00+26в897624 0.1 1018991
02:00+26в99745 0.3 10161001
05:00+26в99755 0.4 1015982
08:00+26в910704 1.0 10171108
11:00+26в787396 0.0 10181017
14:00+26в667584 0.0 1016855
17:00+27в6670100 0.0 1015922
20:00+26в667494 0.1 1016878
23 апреля, пт
пт2323:00+26в66755 0.9 1016778
02:00+26вюв55741 0.9 1015853
05:00+26вюв457569 0.4 1015541
08:00+26вюв787784 3.4 1017639
11:00+27вюв78714 1.1 10171059
14:00+26вюв667411 2.4 1016825
17:00+27в66700 0.1 1015929
20:00+27в77741 0.1 1016916
24 апреля, сб
сб2423:00+26в77690 0.0 1017970
02:00+26всв77680 0.0 1015966
05:00+26в77720 0.0 10151043
08:00+26в78674 0.0 10171105
11:00+26в78751 0.3 1018889
14:00+26в67671 0.4 1016887
17:00+26в67701 0.0 10151031
20:00+26всв88730 0.1 10161030
25 апреля, вс
вс2523:00+26в89660 0.0 10171132
02:00+26в89740 0.1 10151031
05:00+26в89752 0.4 1015989
08:00+26в99734 0.9 10161135
11:00+26вюв89758 0.3 1017997
14:00+26в88680 0.4 10151028
17:00+26в77690 0.0 10141014
20:00+26в78680 0.0 10161029